Cloud_Cover
24 90 100 100 15 0 0 5 5 5 5 5 6 34 97 100 97 82 100 100 100 100 100 99 89 36 80 99 88 63 59 6
33 100 100 100 6 4 5 5 5 5 5 26 53 49 100 100 100 86 100 100 99 92 83 100 100 100 100 100 95 77 30 16
100 99 100 100 64 96 100 100 45 25 11 5 15 35 37 40 39 76 93 58 78 89 100 100 100 42 5 47 90 57 9 12
100 100 92 100 88 100 100 100 99 29 5 17 5 5 8 100 98 98 87 97 100 100 100 74 22 19 15 57 100 100 100 55
100 100 100 100 100 100 100 100 88 99 84 21 45 5 8 97 100 99 100 100 100 100 100 96 100 99 99 100 75 43 35 26
100 100 100 100 100 100 100 100 99 97 98 89 60 8 8 100 100 100 100 100 100 100 100 100 100 100 100 91 44 36 54 9
100 100 100 100 100 100 100 100 75 25 83 46 32 62 62 96 72 100 100 90 100 100 100 94 100 97 74 82 91 32 17 57
100 100 100 100 100 100 100 100 100 95 95 100 100 100 100 100 98 100 98 100 100 75 44 60 82 47 45 83 14 19 25 12
100 100 100 100 100 100 100 100 100 100 100 100 100 100 100 100 100 100 75 78 74 12 33 50 62 20 38 92 14 16 40 32
100 100 100 100 100 100 97 100 100 100 100 100 100 100 100 100 100 92 78 70 25 6 18 28 45 26 52 52 13 5 67 33
100 100 100 100 100 100 100 100 100 100 100 100 100 100 100 100 100 100 100 100 19 5 12 5 24 6 12 60 22 100 59 5
100 100 100 100 100 100 100 100 92 85 85 100 100 100 100 100 100 100 99 100 7 5 14 72 91 100 8 87 24 66 28 5
91 100 100 100 86 75 100 100 100 100 100 100 100 100 100 100 100 100 100 100 100 87 27 6 4 26 5 70 99 5 5 2
100 100 100 100 100 100 100 100 100 100 100 100 100 100 100 100 90 80 100 94 7 22 42 50 91 52 78 100 7 5 5 5
100 100 100 100 100 100 100 100 100 100 100 100 100 100 100 99 96 89 54 95 97 22 100 100 88 43 72 85 84 28 5 5
100 100 100 100 100 100 100 100 100 100 100 100 100 100 100 100 100 95 98 99 100 100 100 85 45 91 100 71 64 5 5 5
100 100 100 100 100 100 100 100 100 100 100 100 100 100 100 100 100 100 100 100 100 100 100 96 100 100 42 5 5 5 5 5
100 97 100 100 100 100 100 100 100 100 100 100 100 100 100 100 100 100 100 100 100 100 100 100 100 48 79 55 38 42 42 80
100 100 100 100 100 100 100 100 100 100 100 100 100 100 100 100 100 100 100 100 100 100 100 92 76 90 100 66 78 100 99 100